DW4212 Weather Reports


Display with metric or nautical units.
time (UTC)temp
F
wind
direction
speed
MPH
gust
MPH
rain 1hr
in
rain 24hr
in
rain mn
in
humidity
%
barometer
mb
20260901074912 68 34 0.0 0.0 0.00 0.00 0.00 49 1022.8
20260901073919 68 34 0.0 0.0 0.00 0.00 0.00 49 1022.8
20260901072921 67 34 0.0 0.0 0.00 0.00 0.00 51 1022.8
20260901071912 66 34 0.0 0.0 0.00 0.00 0.00 50 1022.8
20260901070919 66 34 0.0 0.0 0.00 0.00 0.00 51 1022.9
20260901064914 64 34 0.0 0.0 0.00 0.00 0.00 54 1022.8
20260901063920 62 34 0.0 0.0 0.00 0.00 0.00 54 1022.9
20260901062923 61 34 0.0 0.0 0.00 0.00 0.00 55 1022.7
20260901061930 62 34 0.0 0.0 0.00 0.00 0.00 53 1022.6
20260901060924 61 34 0.0 0.0 0.00 0.00 0.00 56 1022.5
20260901055927 61 34 0.0 0.0 0.00 0.00 0.00 54 1022.6
20260901054915 61 34 0.0 0.0 0.00 0.00 0.00 55 1022.5
20260901053924 61 34 0.0 0.0 0.00 0.00 0.00 56 1022.4
20260901052929 62 34 0.0 0.0 0.00 0.00 0.00 55 1022.3
20260901051917 62 34 0.0 0.0 0.00 0.00 0.00 56 1022.2
20260901050927 62 34 0.0 0.0 0.00 0.00 0.00 55 1022.1
20260901045925 62 34 0.0 0.0 0.00 0.00 0.00 55 1022.0
20260901044919 63 34 0.0 0.0 0.00 0.00 0.00 56 1021.9
20260901043928 62 34 0.0 0.0 0.00 0.00 0.00 54 1021.9
20260901042927 62 34 0.0 0.0 0.00 0.00 0.00 53 1022.0
20260901041917 63 34 0.0 0.0 0.00 0.00 0.00 53 1022.0
20260901040910 63 34 0.0 0.0 0.00 0.00 0.00 52 1022.0
20260901035911 63 34 0.0 0.0 0.00 0.00 0.00 51 1022.0
20260901034919 63 34 0.0 0.0 0.00 0.00 0.00 50 1021.8
20260901033927 63 34 0.0 0.0 0.00 0.00 0.00 50 1021.8
20260901032923 64 34 0.0 0.0 0.00 0.00 0.00 49 1021.8
20260901031917 64 34 0.0 0.0 0.00 0.00 0.00 48 1021.8
20260901030926 65 34 0.0 0.0 0.00 0.00 0.00 49 1021.7
20260901025928 65 34 0.0 0.0 0.00 0.00 0.00 50 1021.7
20260901024921 65 34 327.0 327.0 0.00 0.00 0.00 50 1021.9
20260901023928 65 34 0.0 0.0 0.00 0.00 0.00 50 1021.8
20260901022930 66 34 0.0 0.0 0.00 0.00 0.00 48 1021.8
20260901021920 66 34 0.0 0.0 0.00 0.00 0.00 49 1021.9
20260901020913 67 34 0.0 0.0 0.00 0.00 0.00 49 1021.8
20260901015912 67 34 0.0 0.0 0.00 0.00 0.00 49 1021.9
20260901014922 67 34 0.0 0.0 0.00 0.00 0.00 49 1021.8
20260901013911 68 34 0.0 0.0 0.00 0.00 0.00 48 1021.8
20260901012915 68 34 0.0 0.0 0.00 0.00 0.00 48 1021.8
20260901011924 68 34 0.0 0.0 0.00 0.00 0.00 47 1021.9
20260901010913 69 34 0.0 0.0 0.00 0.00 0.00 47 1022.0
20260901005913 69 34 0.0 0.0 0.00 0.00 0.00 46 1022.0
20260901004926 68 34 0.0 0.0 0.00 0.00 0.00 45 1022.0
20260901003916 67 34 0.0 0.0 0.00 0.00 0.00 45 1022.0
20260901002920 67 34 0.0 0.0 0.00 0.00 0.00 45 1022.1
20260901001926 66 34 0.0 1.0 0.00 0.00 0.00 46 1022.0
20260901000919 65 34 0.0 0.0 0.00 0.00 0.00 46 1021.9
20260831235921 65 34 0.0 0.0 0.00 0.00 0.00 47 1022.0
20260831234911 65 34 0.0 0.0 0.00 0.00 0.00 47 1022.0
20260831233917 67 34 0.0 0.0 0.00 0.00 0.00 44 1021.9
20260831232924 68 34 0.0 0.0 0.00 0.00 0.00 43 1021.8
20260831231913 69 34 0.0 0.0 0.00 0.00 0.00 42 1021.7
20260831230921 69 34 0.0 1.0 0.00 0.00 0.00 43 1021.8
20260831225923 69 34 0.0 0.0 0.00 0.00 0.00 43 1021.8
20260831224915 69 34 0.0 0.0 0.00 0.00 0.00 43 1021.8
20260831223923 69 34 0.0 0.0 0.00 0.00 0.00 42 1021.8
20260831222925 69 34 0.0 0.0 0.00 0.00 0.00 42 1021.7
20260831221918 69 34 0.0 0.0 0.00 0.00 0.00 42 1021.7
20260831220926 70 34 0.0 0.0 0.00 0.00 0.00 40 1021.7
20260831215926 71 34 0.0 0.0 0.00 0.00 0.00 40 1021.7
20260831214915 71 34 0.0 0.0 0.00 0.00 0.00 39 1021.7
20260831213928 72 34 0.0 0.0 0.00 0.00 0.00 38 1021.7
20260831212928 73 35 0.0 4.0 0.00 0.00 0.00 37 1021.7
20260831211916 73 36 0.0 0.0 0.00 0.00 0.00 36 1021.7
20260831210925 74 36 0.0 0.0 0.00 0.00 0.00 35 1021.7
20260831205930 74 36 0.0 0.0 0.00 0.00 0.00 35 1021.6
20260831204919 75 36 0.0 6.0 0.00 0.00 0.00 35 1021.5
20260831203929 75 51 2.0 5.0 0.00 0.00 0.00 33 1021.4
20260831203012 76 177 0.0 0.0 0.00 0.00 0.00 31 1021.3
20260831201916 77 177 0.0 0.0 0.00 0.00 0.00 30 1021.2
20260831200929 77 177 0.0 0.0 0.00 0.00 0.00 30 1021.1
20260831195911 77 177 0.0 0.0 0.00 0.00 0.00 30 1020.9
20260831194921 77 177 0.0 0.0 0.00 0.00 0.00 30 1020.8
20260831193912 77 177 0.0 2.0 0.00 0.00 0.00 29 1020.7
20260831192915 78 177 0.0 0.0 0.00 0.00 0.00 29 1020.6
20260831191923 78 177 0.0 3.0 0.00 0.00 0.00 28 1020.6
20260831190911 79 177 0.0 0.0 0.00 0.00 0.00 27 1020.4
20260831185911 80 177 0.0 0.0 0.00 0.00 0.00 26 1020.4
20260831184918 81 177 0.0 0.0 0.00 0.00 0.00 26 1020.5
20260831183930 81 177 0.0 0.0 0.00 0.00 0.00 25 1020.5
20260831182929 82 177 0.0 0.0 0.00 0.00 0.00 25 1020.5
20260831181916 83 177 0.0 3.0 0.00 0.00 0.00 24 1020.5
20260831180923 84 177 0.0 8.0 0.00 0.00 0.00 24 1020.5
20260831175921 84 168 0.0 3.0 0.00 0.00 0.00 25 1020.6
20260831174912 85 168 1.0 5.0 0.00 0.00 0.00 24 1020.4
20260831173920 86 168 0.0 6.0 0.00 0.00 0.00 24 1020.5
20260831172919 86 167 0.0 4.0 0.00 0.00 0.00 24 1020.5
20260831171923 86 166 0.0 5.0 0.00 0.00 0.00 23 1020.5
20260831170911 87 180 2.0 6.0 0.00 0.00 0.00 23 1020.5
20260831165912 87 187 3.0 8.0 0.00 0.00 0.00 22 1020.6
20260831164922 88 189 0.0 5.0 0.00 0.00 0.00 22 1020.5
20260831163929 87 182 1.0 8.0 0.00 0.00 0.00 23 1020.4
20260831162930 87 180 1.0 8.0 0.00 0.00 0.00 23 1020.4
20260831161917 87 175 0.0 7.0 0.00 0.00 0.00 24 1020.6
20260831160926 87 203 1.0 10.0 0.00 0.00 0.00 24 1020.6
20260831155925 88 191 1.0 8.0 0.00 0.00 0.00 23 1020.7
20260831154914 88 189 1.0 6.0 0.00 0.00 0.00 23 1020.8
20260831153922 87 236 1.0 8.0 0.00 0.00 0.00 24 1020.8
20260831152924 88 182 1.0 6.0 0.00 0.00 0.00 24 1020.8
20260831151929 88 185 2.0 9.0 0.00 0.00 0.00 23 1020.9
20260831150911 87 173 1.0 3.0 0.00 0.00 0.00 25 1020.9
20260831145912 87 172 2.0 9.0 0.00 0.00 0.00 23 1021.0
20260831144923 88 207 0.0 6.0 0.00 0.00 0.00 24 1021.0
20260831143911 87 198 2.0 7.0 0.00 0.00 0.00 25 1021.1
20260831142912 86 65 0.0 0.0 0.00 0.00 0.00 27 1021.1
20260831141918 87 63 0.0 4.0 0.00 0.00 0.00 26 1021.1
20260831140925 87 195 1.0 7.0 0.00 0.00 0.00 26 1021.3
20260831135924 86 177 0.0 5.0 0.00 0.00 0.00 26 1021.4
20260831134916 87 183 0.0 4.0 0.00 0.00 0.00 25 1021.6
20260831133921 87 183 0.0 8.0 0.00 0.00 0.00 25 1021.6
20260831132922 86 180 1.0 6.0 0.00 0.00 0.00 26 1021.7
20260831131927 86 179 2.0 7.0 0.00 0.00 0.00 27 1021.7
20260831130913 85 178 0.0 5.0 0.00 0.00 0.00 28 1021.8
20260831125918 84 178 1.0 5.0 0.00 0.00 0.00 29 1021.9
20260831124926 84 178 0.0 8.0 0.00 0.00 0.00 29 1021.9
20260831123912 84 177 0.0 6.0 0.00 0.00 0.00 30 1022.0
20260831122931 84 178 2.0 6.0 0.00 0.00 0.00 30 1022.1
20260831121918 85 178 0.0 7.0 0.00 0.00 0.00 29 1022.2
20260831120925 84 175 0.0 5.0 0.00 0.00 0.00 29 1022.4
20260831115927 83 173 0.0 9.0 0.00 0.00 0.00 30 1022.4
20260831114912 83 178 0.0 6.0 0.00 0.00 0.00 30 1022.5
20260831113917 83 180 1.0 5.0 0.00 0.00 0.00 31 1022.6
20260831112912 82 180 2.0 9.0 0.00 0.00 0.00 32 1022.6
20260831111920 81 191 2.0 8.0 0.00 0.00 0.00 33 1022.6
20260831110929 83 197 0.0 5.0 0.00 0.00 0.00 32 1022.7
20260831105930 83 188 0.0 6.0 0.00 0.00 0.00 32 1022.7
20260831104918 82 190 0.0 7.0 0.00 0.00 0.00 33 1022.8
20260831103926 81 160 0.0 8.0 0.00 0.00 0.00 33 1022.8
20260831102924 81 158 0.0 8.0 0.00 0.00 0.00 34 1022.8
20260831101913 79 148 0.0 5.0 0.00 0.00 0.00 35 1022.8
20260831100921 81 182 0.0 3.0 0.00 0.00 0.00 34 1022.8
20260831095927 80 182 0.0 5.0 0.00 0.00 0.00 35 1022.8
20260831094914 79 182 0.0 6.0 0.00 0.00 0.00 36 1022.7
20260831094009 79 173 1.0 8.0 0.00 0.00 0.00 37 1022.7
20260831092926 78 110 0.0 4.0 0.00 0.00 0.00 37 1022.7
20260831091912 77 29 0.0 0.0 0.00 0.00 0.00 38 1022.7
20260831090920 76 26 0.0 0.0 0.00 0.00 0.00 39 1022.8
20260831085920 75 26 0.0 0.0 0.00 0.00 0.00 41 1022.7
20260831084925 74 26 0.0 0.0 0.00 0.00 0.00 43 1022.7
20260831083915 73 26 0.0 0.0 0.00 0.00 0.00 44 1022.6
20260831082917 72 26 0.0 0.0 0.00 0.00 0.00 46 1022.6
20260831081926 0 0.0 0.0 0.00 0.00 0.00 1022.6
20260831080913 0 0.0 0.0 0.00 0.00 0.00 1022.6
20260831075913 0 0.0 0.0 0.00 0.00 0.00 1022.6